GFSNE_con_3kmhel_174.txt.gz
Helicity
52 47 45 44 40 42 46 55 66 80 87 81 100 90 89 78 84 81 77 86 73 49 78 86 109 120 120 126 128 124 118 117 123 129 158 165 147 128
45 44 43 47 51 60 70 76 83 88 132 123 109 107 105 98 92 104 115 120 116 104 94 89 100 99 110 135 152 153 155 151 134 143 141 139 157 148
44 47 62 62 69 73 75 73 80 95 120 115 126 125 128 113 111 108 112 124 137 133 137 122 101 111 126 139 133 153 176 181 179 165 161 163 166 165
57 62 68 62 67 69 74 81 97 103 128 119 129 139 128 140 96 68 51 75 82 85 74 75 104 135 132 122 143 157 176 181 198 221 219 211 155 135
55 56 64 67 73 82 87 94 111 130 139 140 131 154 136 63 55 75 81 87 77 41 22 28 54 67 82 92 105 101 111 139 163 199 228 210 207 185
52 64 69 70 75 88 101 118 137 129 152 157 141 101 87 91 99 111 123 92 83 63 55 38 42 44 59 74 91 87 99 113 109 96 101 97 100 112
64 61 63 80 88 113 136 132 123 125 109 102 83 92 94 113 129 129 116 100 79 69 77 69 55 56 51 32 42 45 63 69 68 69 70 91 99 88
55 58 80 87 110 101 108 96 77 93 102 112 113 115 110 122 129 130 127 139 124 82 85 79 54 51 43 37 20 19 25 32 31 31 38 36 45 49
62 75 85 94 98 124 94 78 86 97 100 120 115 112 111 108 101 109 150 157 131 97 94 89 54 52 42 34 9 10 11 18 33 35 37 46 45 34
73 73 80 76 100 114 120 119 108 108 120 110 95 76 80 93 103 138 152 140 141 111 98 83 48 47 48 52 14 18 34 52 65 75 62 54 46 61
68 66 58 82 125 104 110 129 123 98 98 63 37 70 69 60 91 139 131 129 114 90 81 75 62 54 56 59 53 36 42 29 49 46 52 59 70 77
49 57 97 109 94 98 124 125 91 95 89 95 102 90 84 70 55 100 138 126 121 101 66 74 67 63 45 38 55 32 49 30 27 34 28 24 28 57
64 70 95 96 85 82 82 93 106 88 83 110 98 95 82 86 94 102 101 119 113 116 66 74 87 59 60 44 50 53 50 64 62 42 22 25 32 45
54 79 102 66 68 68 77 91 70 70 109 120 107 98 102 92 94 96 91 98 121 119 70 54 101 83 53 65 58 59 63 47 13 8 19 4 -0 2
88 71 51 73 64 70 86 76 53 114 132 115 100 104 91 87 79 89 80 65 61 64 54 41 66 70 66 72 62 70 55 51 28 24 26 31 18 19
84 78 82 79 69 75 88 73 95 105 100 100 105 95 77 74 75 73 64 65 64 65 52 54 57 61 63 53 56 71 39 53 14 22 28 7 34 36
94 81 98 123 135 124 88 79 92 96 100 96 92 78 68 68 67 66 72 61 51 43 46 44 39 49 71 77 72 57 48 29 24 19 4 22 32 26
83 115 148 159 138 103 64 78 87 85 95 90 83 73 71 69 67 64 59 54 43 43 41 42 28 6 7 28 47 48 30 27 24 32 37 44 34 32
128 159 156 132 106 77 80 91 103 100 89 95 84 80 71 47 49 61 59 54 44 33 34 35 16 20 11 5 13 16 18 14 14 25 32 33 31 36
150 142 131 113 96 82 84 111 113 112 104 101 84 61 33 72 67 62 54 47 29 12 7 24 42 36 39 20 17 39 27 38 24 18 14 44 44 18
144 131 117 102 96 86 97 118 121 124 104 98 82 15 58 76 69 65 54 13 -31 28 33 36 39 8 45 51 69 47 29 58 59 41 31 25 29 27
137 133 114 106 98 99 104 109 119 118 108 102 52 -9 75 77 75 66 60 51 48 45 39 38 36 44 47 48 51 41 45 42 36 39 51 57 63 63
134 137 121 114 106 118 109 104 112 117 109 99 77 43 70 76 67 70 70 66 55 49 40 38 47 49 53 53 43 52 40 45 45 43 58 42 36 42

GFSNE_con_3kmhel_180.txt.gz
Helicity
97 95 66 49 63 56 61 45 44 58 73 57 78 61 51 75 82 100 93 83 79 54 43 65 72 87 91 90 106 120 124 111 110 164 209 213 191 184
69 58 49 46 38 56 47 41 42 54 63 94 56 66 69 87 101 98 96 77 67 51 68 92 95 86 73 84 96 107 105 102 147 165 156 203 243 262
67 55 33 39 58 49 33 40 44 60 69 87 88 77 89 89 85 89 97 90 74 55 93 85 77 82 82 97 125 122 110 109 103 128 108 100 97 122
36 36 50 56 53 41 46 46 47 51 77 65 77 86 85 106 103 94 66 62 100 94 57 53 54 67 53 96 107 95 91 87 83 64 30 26 22 32
42 57 61 55 47 45 51 60 62 76 87 94 76 103 106 98 100 97 100 108 103 65 60 59 54 47 57 75 88 100 85 67 54 60 44 32 23 9
46 32 48 55 54 53 49 61 80 84 95 95 82 93 99 99 121 131 132 123 98 75 72 55 39 47 41 54 69 70 55 34 24 21 14 11 6 5
27 36 48 44 43 39 51 54 68 89 101 102 104 119 112 124 137 136 148 130 83 86 104 87 91 77 78 54 54 41 37 26 11 19 21 26 33 29
37 39 29 54 50 42 57 55 68 80 73 86 99 128 134 149 154 146 161 128 112 90 117 95 84 93 102 101 31 21 20 28 38 49 68 54 48 41
31 30 35 55 61 92 85 82 72 80 76 102 139 144 150 143 145 141 131 138 117 106 97 116 105 97 110 87 39 7 12 33 20 18 27 30 22 15
30 31 42 54 70 113 90 76 72 96 115 137 149 140 135 106 116 127 140 131 113 108 117 127 83 103 94 100 50 7 15 0 -19 -23 -6 -5 0 14
24 41 55 70 81 86 84 91 109 115 102 110 100 71 72 93 85 119 122 107 106 87 108 105 85 101 93 124 77 12 0 -7 -8 3 -19 -9 -6 1
31 52 76 99 100 86 107 127 122 119 131 111 95 92 94 88 63 101 101 124 124 90 106 79 84 79 53 50 83 91 105 50 9 0 -2 -4 -3 8
44 63 79 90 83 80 104 136 131 130 119 117 103 94 94 91 98 113 124 131 120 104 75 69 80 73 122 82 118 122 87 87 77 47 19 23 -4 0
48 51 56 61 61 85 115 106 109 115 138 128 97 87 101 115 122 124 116 110 103 94 73 96 99 57 51 65 79 101 83 80 82 31 38 34 14 6
62 45 68 68 64 97 91 92 139 138 132 111 100 97 125 127 123 126 111 101 100 97 98 108 105 88 81 64 72 69 42 48 48 67 65 71 57 49
67 70 78 75 87 118 143 152 134 114 103 105 89 103 115 130 125 126 99 64 65 78 101 114 122 119 79 90 84 56 65 83 73 74 68 80 89 69
71 122 133 139 146 147 144 136 120 117 112 96 87 96 106 116 126 117 96 72 53 66 71 90 108 105 105 94 67 89 92 84 78 68 50 48 74 94
113 146 160 153 141 144 143 126 149 116 122 110 97 106 116 129 123 102 97 78 66 80 87 78 50 46 51 66 62 64 72 84 81 77 77 70 55 67
138 157 164 149 152 162 157 171 160 148 130 129 113 125 133 135 94 114 93 63 80 95 90 96 56 44 11 21 64 56 62 84 67 59 70 85 95 89
149 141 149 157 163 161 153 164 157 141 153 155 140 132 122 113 103 100 91 55 94 96 102 96 126 84 55 46 76 109 56 69 75 69 62 65 89 54
131 147 160 163 161 152 149 154 165 132 133 157 159 155 120 109 96 92 92 5 3 82 110 123 132 37 71 86 84 100 106 83 73 80 82 69 59 60
145 160 157 154 148 149 150 154 147 115 145 145 141 155 117 105 97 88 79 57 72 102 141 169 139 135 134 102 92 97 125 117 109 64 53 47 96 105
153 156 150 146 138 145 139 136 120 133 122 135 154 149 113 99 108 105 99 102 85 103 159 152 121 113 136 144 93 118 97 105 105 83 118 65 39 37

GFSNE_con_3kmhel_183.txt.gz
Helicity
136 103 108 69 93 78 76 70 66 96 91 74 93 66 62 79 94 92 87 71 78 77 95 120 110 93 96 131 134 136 132 137 127 133 111 144 119 161
111 93 64 69 70 80 44 44 58 55 76 76 69 61 77 89 101 111 109 108 80 86 95 101 85 103 130 135 111 147 135 148 132 106 82 66 99 79
104 83 78 62 65 53 33 44 55 59 58 62 73 72 85 95 107 117 116 102 80 78 102 104 99 112 117 114 139 164 167 161 116 90 77 65 49 55
97 66 65 67 74 43 50 63 71 68 69 53 67 76 84 98 96 98 84 66 78 80 95 79 82 89 90 136 145 125 120 121 83 57 54 44 36 33
73 43 73 57 40 52 53 60 57 76 85 73 63 82 80 100 102 93 77 86 83 64 77 82 93 102 103 108 104 86 80 74 67 51 43 33 14 3
48 42 38 36 44 42 41 57 69 72 80 81 80 84 97 90 98 91 105 109 98 81 79 79 91 79 90 92 79 64 55 53 50 44 32 27 26 22
44 26 22 33 44 31 39 41 53 71 81 71 73 100 93 92 86 92 116 97 81 63 94 77 102 78 96 61 42 41 30 18 32 54 60 50 34 34
23 26 35 43 29 60 66 67 76 67 57 77 78 81 69 99 106 115 110 99 91 93 77 74 87 85 89 81 36 -6 3 9 41 26 18 13 7 5
25 33 32 41 65 54 53 53 47 80 109 109 99 103 114 120 124 122 118 126 111 106 103 95 98 91 98 112 34 3 7 11 5 -23 -43 -19 -25 -22
17 15 23 29 24 48 42 44 78 95 87 111 133 118 121 118 128 126 144 135 116 97 128 138 94 101 88 151 66 45 22 -25 -31 -26 -9 -13 -13 -16
19 18 27 24 -2 57 75 76 74 87 85 101 115 118 109 99 103 129 119 116 109 96 118 118 79 62 69 102 53 70 33 30 6 2 -9 -9 -14 4
35 52 76 65 70 62 79 89 84 95 106 113 116 116 91 86 99 118 111 108 99 100 103 64 49 31 23 29 94 88 86 66 49 19 17 9 14 48
37 31 37 53 59 63 90 124 111 122 130 124 111 114 97 88 88 92 104 128 134 120 101 82 83 53 79 41 56 78 77 98 98 93 72 42 25 37
26 35 49 71 69 76 116 116 123 188 136 121 113 126 109 92 94 98 118 140 152 134 94 98 114 87 82 59 49 46 51 65 91 89 71 57 23 17
53 79 80 76 77 123 138 144 180 158 134 124 128 115 99 94 88 129 130 128 129 138 121 100 114 125 112 93 71 49 27 28 35 78 72 72 82 84
52 69 85 98 115 137 161 169 158 149 146 131 139 116 102 107 100 120 121 108 112 116 119 96 110 120 93 96 80 41 57 77 64 77 71 71 80 100
57 85 100 103 104 128 159 153 132 143 136 117 138 122 104 106 115 120 123 109 105 95 70 96 107 112 127 69 61 90 83 73 87 79 51 44 60 78
75 78 88 96 113 155 157 144 121 110 129 125 138 152 122 130 125 118 114 99 95 87 50 70 91 54 65 89 33 87 76 100 80 70 72 64 65 84
81 79 93 119 151 152 149 133 119 126 149 147 137 164 150 132 114 132 108 93 84 90 77 93 108 62 2 33 86 72 83 88 81 75 79 85 81 98
82 94 122 141 147 145 144 123 129 143 163 139 127 142 145 145 144 125 99 87 91 90 81 50 95 151 60 51 51 112 51 82 89 101 83 88 102 62
105 122 133 136 134 142 146 146 136 134 119 111 131 130 124 148 147 135 104 43 33 60 35 51 129 63 125 113 69 87 100 77 82 97 83 56 68 70
115 133 137 130 128 132 136 136 135 115 114 133 110 115 123 135 130 113 105 92 96 86 75 108 124 179 188 140 119 95 127 126 110 68 57 46 64 119
130 143 140 126 119 129 143 144 142 133 139 146 125 113 112 124 119 115 106 102 105 89 101 114 108 140 152 199 141 135 112 108 111 86 123 80 49 41

GFSNE_con_3kmhel_186.txt.gz
Helicity
224 209 188 166 184 138 135 122 97 119 107 114 133 104 80 101 123 118 95 95 119 121 127 136 132 128 133 153 145 118 110 121 124 82 71 71 88 104
186 171 157 136 140 136 118 94 103 96 108 99 116 96 97 117 122 115 101 118 114 126 137 112 118 110 113 120 103 88 115 123 102 111 88 66 65 85
158 142 121 112 101 126 77 89 84 88 89 83 88 91 114 108 107 107 92 89 96 130 124 110 116 127 125 126 119 107 92 109 121 93 61 58 73 51
111 113 99 89 126 76 72 79 80 77 75 74 79 91 95 93 88 96 94 92 100 93 83 80 115 100 103 105 106 108 122 118 94 72 59 54 44 49
104 97 82 79 87 55 50 51 64 68 67 65 66 83 83 94 97 101 95 99 86 50 46 61 90 88 83 97 95 110 111 99 85 71 44 32 21 35
89 90 57 62 43 37 50 53 45 61 63 66 74 83 88 87 104 111 123 117 109 89 43 70 72 86 94 94 106 119 110 86 57 44 56 40 35 29
76 46 53 36 36 48 22 22 48 53 60 69 75 92 93 110 105 109 122 101 110 83 108 79 114 114 114 97 110 87 78 42 26 38 10 18 15 13
64 60 34 49 37 38 53 63 49 50 61 68 81 97 91 107 123 129 122 118 103 88 106 83 113 103 112 118 67 40 33 16 8 1 -7 -19 -24 -14
45 46 31 14 22 33 46 47 52 76 89 94 93 89 110 137 135 132 139 134 121 111 110 99 117 100 104 147 60 37 45 34 -7 -12 -12 -9 -7 -8
48 13 8 16 19 24 25 29 40 53 72 97 113 117 121 121 140 145 140 123 110 93 124 126 106 100 91 150 50 23 25 43 19 15 10 3 -5 -11
13 17 24 26 8 33 38 25 37 68 97 99 117 118 125 143 149 158 142 118 99 87 111 108 111 90 60 52 78 81 72 48 42 32 26 17 16 15
45 54 64 38 44 40 54 64 61 83 109 123 130 130 132 142 142 152 141 146 118 77 71 100 106 78 46 31 67 90 104 73 62 53 47 63 61 63
36 35 39 56 60 56 84 105 93 134 151 138 134 138 138 127 136 155 157 150 124 131 108 114 147 107 99 58 103 104 68 108 102 109 110 104 70 64
31 31 32 49 55 74 110 109 184 205 170 150 145 137 127 122 130 132 128 129 126 115 104 136 156 121 79 45 55 98 68 68 95 113 117 60 47 54
34 28 47 66 76 97 120 167 208 183 159 153 137 146 133 117 115 129 133 133 123 123 135 140 158 137 111 47 71 70 -4 42 58 70 58 71 70 73
16 23 49 74 90 111 136 164 164 145 149 154 138 141 140 125 116 123 121 114 117 134 130 139 146 153 89 107 87 4 55 61 75 80 58 68 72 79
36 46 62 80 100 114 126 139 135 133 151 155 141 123 112 125 118 100 117 154 144 129 121 115 146 151 138 118 52 44 51 95 97 80 57 47 67 88
46 52 61 87 105 109 131 131 132 120 135 142 156 133 112 124 123 108 141 166 150 123 99 108 118 101 96 95 55 -21 46 105 104 73 77 68 53 91
42 37 73 100 102 122 131 138 148 125 126 141 141 138 124 130 96 114 126 134 132 117 113 121 142 115 8 16 82 17 34 93 90 75 85 86 74 98
44 63 85 102 113 137 147 148 131 123 131 142 138 122 124 116 103 109 113 123 125 111 103 106 113 130 51 33 57 112 52 126 103 88 77 78 91 54
73 77 91 97 134 152 141 133 122 123 126 139 135 128 131 120 109 113 112 61 59 94 99 105 120 48 100 95 64 88 130 84 104 102 95 54 24 39
90 92 114 129 137 146 130 126 135 129 152 153 135 136 129 123 113 106 108 109 112 111 120 105 123 138 176 100 59 57 103 119 150 103 67 36 51 89
102 122 137 138 140 128 129 122 143 152 154 151 138 131 132 122 117 116 116 117 115 110 132 129 130 138 134 150 70 64 48 80 145 134 123 83 31 15

GFSNE_con_3kmhel_189.txt.gz
Helicity
220 223 214 232 214 213 198 144 114 124 122 124 141 128 106 97 113 109 88 106 113 127 124 123 127 131 125 123 122 126 124 122 108 77 84 77 54 68
216 196 207 185 214 191 178 166 143 114 142 135 144 121 115 118 112 99 83 108 118 125 118 125 127 129 134 127 128 120 89 71 73 81 68 57 66 27
173 169 177 165 152 153 144 132 133 113 129 115 134 122 117 109 104 101 95 100 104 113 107 115 123 134 128 109 101 87 87 84 92 80 72 75 61 43
160 164 153 138 146 125 108 99 84 101 75 87 89 93 96 87 83 95 95 99 105 98 101 106 113 120 109 103 84 75 86 95 91 80 79 56 46 30
127 123 110 100 98 91 76 57 77 64 66 64 77 77 74 80 89 90 90 109 104 103 104 96 98 85 75 83 96 102 98 91 84 80 54 68 65 60
124 99 88 86 60 52 44 49 48 52 50 57 53 52 62 69 78 77 107 117 136 140 91 79 63 45 63 85 102 103 101 88 81 57 49 51 49 35
120 112 77 45 42 41 31 23 28 30 31 33 41 58 68 82 88 96 114 131 131 107 142 111 122 109 111 93 110 90 89 81 66 52 51 48 28 10
84 61 69 63 56 50 47 37 16 10 19 31 41 55 70 84 99 113 118 129 130 114 155 117 111 103 115 145 90 82 79 105 102 56 50 23 9 10
57 67 61 36 49 42 54 41 32 47 44 43 50 58 74 96 106 112 131 142 157 143 142 137 99 96 97 150 85 85 92 68 69 47 39 25 17 16
68 28 33 34 18 31 26 22 28 29 42 69 90 91 87 92 131 146 150 142 133 117 145 189 120 99 114 146 65 80 92 68 58 44 31 29 27 22
36 29 44 31 19 39 39 33 29 41 83 110 117 102 106 141 156 174 158 156 149 140 119 170 112 92 80 102 75 72 80 51 60 76 59 41 34 34
59 64 45 32 32 34 41 45 41 51 97 120 127 130 143 149 151 162 159 163 158 157 134 144 109 90 68 68 105 89 108 57 66 76 80 73 91 91
45 40 34 43 43 35 61 62 51 101 116 130 117 126 136 133 129 140 165 186 192 212 147 164 190 145 167 127 113 99 61 71 77 81 62 83 87 73
23 16 25 44 35 39 68 56 129 142 133 124 127 134 134 131 121 131 153 164 176 169 148 168 206 168 162 133 106 96 70 61 80 61 70 41 40 50
19 22 36 49 56 62 77 108 140 124 130 145 140 130 123 126 125 149 151 138 140 138 155 175 207 187 175 138 121 59 25 39 47 56 52 65 85 84
39 35 41 49 63 64 88 107 114 131 135 134 135 124 117 121 137 158 157 133 126 136 144 149 164 186 155 135 120 29 65 77 94 74 71 76 84 99
47 44 47 49 49 70 95 107 123 130 121 131 136 120 98 107 118 141 153 143 153 132 123 139 136 142 144 125 105 93 29 83 114 79 63 56 69 98
55 52 37 37 55 81 99 112 124 115 129 129 128 119 127 133 132 134 155 151 126 115 119 136 137 120 94 93 93 106 73 46 84 59 76 55 40 87
58 44 44 52 60 82 101 120 143 130 117 118 131 136 161 155 131 140 133 128 119 117 121 134 152 160 92 104 109 24 73 87 59 57 74 102 80 93
62 66 65 55 71 97 116 142 132 129 125 127 142 151 164 163 139 134 129 122 116 118 117 127 143 171 155 119 101 114 59 74 95 85 67 84 115 50
91 87 80 70 91 123 132 130 131 137 132 147 159 156 149 162 142 143 136 75 73 111 109 113 130 42 116 142 108 103 107 59 67 95 78 76 72 57
113 111 90 97 137 139 132 139 138 131 147 159 163 161 162 173 160 151 140 133 122 124 131 137 82 94 134 134 123 76 109 112 116 95 40 -8 65 108
139 130 122 143 158 150 148 164 151 145 143 162 157 150 162 164 164 157 144 140 142 138 131 104 39 88 133 163 137 174 125 118 138 120 147 79 18 2